Location: Unspecified
(0.0000°N, 0.0000°E)
Time: 19:11:41
(UTC+02:00)

SJ-6B - Visible Passes

Search period start: 30 July 2014 00:00
Search period end: 09 August 2014 00:00
Orbit: 520 x 599 km, 97.8° (Epoch: 29 July)

Date Brightness Start Highest point End Pass type
(mag) Time Alt. Az. Time Alt. Az. Time Alt. Az.
30 Jul 5.9 06:57:06 10° ENE 06:58:57 13° ESE 07:00:50 10° SE visible
30 Jul 5.6 20:30:13 10° SSW 20:33:16 21° WSW 20:36:15 10° NW visible
31 Jul 6.0 06:55:58 10° ENE 06:57:40 12° ESE 06:59:22 10° SE visible
31 Jul 5.5 20:28:51 10° SSW 20:31:58 22° WSW 20:35:01 10° NW visible
01 Aug 6.0 06:54:51 10° E 06:56:22 12° ESE 06:57:53 10° SE visible
01 Aug 5.4 20:27:30 10° SSW 20:30:40 23° WSW 20:33:46 10° NW visible
02 Aug 6.1 06:53:45 10° E 06:55:04 11° ESE 06:56:22 10° ESE visible
03 Aug 6.2 06:52:43 10° E 06:53:45 11° ESE 06:54:47 10° ESE visible
04 Aug 6.3 06:51:48 10° E 06:52:26 10° ESE 06:53:05 10° ESE visible
